| time (UTC) | temp F | wind direction | speed MPH | gust MPH | rain 1hr in | rain 24hr in | rain mn in | humidity % | barometer mb |
| 20260506090914 | 61 | 58 | 9.0 | 13.0 | 0.00 | 0.02 | 0.00 | 49 | 1009.0 |
| 20260506085714 | 61 | 66 | 7.0 | 12.0 | 0.00 | 0.02 | 0.00 | 48 | 1008.0 |
| 20260506084515 | 62 | 74 | 7.0 | 14.0 | 0.00 | 0.02 | 0.00 | 48 | 1008.0 |
| 20260506083314 | 62 | 75 | 10.0 | 12.0 | 0.00 | 0.02 | 0.00 | 52 | 1009.0 |
| 20260506082114 | 61 | 121 | 10.0 | 10.0 | 0.00 | 0.02 | 0.00 | 52 | 1009.0 |
| 20260506080914 | 60 | 66 | 6.0 | 11.0 | 0.00 | 0.02 | 0.00 | 59 | 1009.0 |
| 20260506073316 | 57 | 55 | 5.0 | 7.0 | 0.00 | 0.02 | 0.00 | 70 | 1009.0 |
| 20260506072116 | 56 | 67 | 6.0 | 6.0 | 0.00 | 0.02 | 0.00 | 76 | 1009.0 |
| 20260506070916 | 55 | 76 | 5.0 | 6.0 | 0.00 | 0.02 | 0.00 | 88 | 1009.0 |
| 20260506062115 | 52 | 82 | 1.0 | 2.0 | 0.00 | 0.02 | 0.02 | 94 | 1009.0 |
| 20260506060917 | 51 | 129 | 1.0 | 2.0 | 0.00 | 0.02 | 0.02 | 94 | 1009.0 |
| 20260506050915 | 49 | 279 | 2.0 | 3.0 | 0.00 | 0.02 | 0.02 | 94 | 1009.0 |
| 20260506044515 | 48 | 47 | 3.0 | 4.0 | 0.00 | 0.02 | 0.02 | 94 | 1010.0 |
| 20260506043316 | 49 | 52 | 3.0 | 5.0 | 0.00 | 0.02 | 0.02 | 94 | 1010.0 |
| 20260506042115 | 49 | 14 | 2.0 | 5.0 | 0.00 | 0.02 | 0.02 | 94 | 1010.0 |
| 20260506040915 | 49 | 291 | 3.0 | 5.0 | 0.00 | 0.02 | 0.02 | 93 | 1010.0 |
| 20260506035715 | 49 | 338 | 2.0 | 4.0 | 0.00 | 0.02 | 0.02 | 93 | 1010.0 |
| 20260506034515 | 49 | 338 | 2.0 | 4.0 | 0.00 | 0.02 | 0.02 | 93 | 1010.0 |
| 20260506033315 | 50 | 237 | 2.0 | 4.0 | 0.00 | 0.02 | 0.02 | 93 | 1010.0 |
| 20260506032115 | 51 | 251 | 4.0 | 4.0 | 0.00 | 0.02 | 0.02 | 92 | 1010.0 |
| 20260506030915 | 51 | 250 | 3.0 | 3.0 | 0.00 | 0.02 | 0.02 | 92 | 1010.0 |
| 20260506025716 | 52 | 250 | 2.0 | 3.0 | 0.00 | 0.02 | 0.02 | 91 | 1010.0 |
| 20260506024515 | 52 | 282 | 2.0 | 3.0 | 0.00 | 0.02 | 0.02 | 91 | 1010.0 |
| 20260506023315 | 52 | 269 | 4.0 | 5.0 | 0.00 | 0.02 | 0.02 | 91 | 1010.0 |
| 20260506022115 | 53 | 288 | 4.0 | 5.0 | 0.00 | 0.02 | 0.02 | 89 | 1010.0 |
| 20260506020915 | 54 | 273 | 3.0 | 4.0 | 0.00 | 0.02 | 0.02 | 85 | 1010.0 |
| 20260506015715 | 54 | 301 | 2.0 | 4.0 | 0.00 | 0.02 | 0.02 | 83 | 1010.0 |
| 20260506014515 | 54 | 278 | 2.0 | 2.0 | 0.00 | 0.02 | 0.02 | 83 | 1010.0 |
| 20260506013315 | 54 | 244 | 1.0 | 2.0 | 0.00 | 0.02 | 0.02 | 82 | 1010.0 |
| 20260506012115 | 54 | 327 | 1.0 | 2.0 | 0.00 | 0.02 | 0.02 | 80 | 1010.0 |
| 20260506010916 | 55 | 168 | 2.0 | 4.0 | 0.00 | 0.02 | 0.02 | 76 | 1010.0 |
| 20260506005715 | 55 | 173 | 2.0 | 4.0 | 0.00 | 0.02 | 0.02 | 76 | 1011.0 |
| 20260506004515 | 55 | 173 | 2.0 | 4.0 | 0.00 | 0.02 | 0.02 | 76 | 1011.0 |
| 20260506003315 | 55 | 181 | 5.0 | 6.0 | 0.00 | 0.02 | 0.02 | 80 | 1011.0 |
| 20260506002115 | 55 | 123 | 3.0 | 4.0 | 0.00 | 0.02 | 0.02 | 82 | 1011.0 |
| 20260506000915 | 55 | 225 | 3.0 | 5.0 | 0.00 | 0.02 | 0.02 | 82 | 1011.0 |
| 20260505235715 | 55 | 278 | 5.0 | 10.0 | 0.00 | 0.02 | 0.02 | 84 | 1011.0 |
| 20260505234515 | 55 | 278 | 5.0 | 10.0 | 0.00 | 0.02 | 0.02 | 84 | 1011.0 |
| 20260505233315 | 56 | 267 | 9.0 | 14.0 | 0.00 | 0.02 | 0.02 | 89 | 1010.0 |
| 20260505232115 | 56 | 267 | 9.0 | 14.0 | 0.00 | 0.02 | 0.02 | 89 | 1010.0 |
| 20260505230915 | 56 | 263 | 12.0 | 16.0 | 0.00 | 0.02 | 0.02 | 91 | 1010.0 |
| 20260505225715 | 55 | 270 | 13.0 | 16.0 | 0.00 | 0.02 | 0.02 | 91 | 1010.0 |
| 20260505224515 | 55 | 271 | 16.0 | 15.0 | 0.00 | 0.02 | 0.02 | 92 | 1010.0 |
| 20260505223315 | 55 | 249 | 10.0 | 13.0 | 0.00 | 0.02 | 0.02 | 93 | 1010.0 |
| 20260505222115 | 55 | 249 | 10.0 | 13.0 | 0.00 | 0.02 | 0.02 | 93 | 1010.0 |
| 20260505220916 | 55 | 262 | 9.0 | 11.0 | 0.00 | 0.02 | 0.02 | 92 | 1010.0 |
| 20260505215715 | 55 | 248 | 9.0 | 12.0 | 0.00 | 0.02 | 0.02 | 92 | 1010.0 |
| 20260505214514 | 55 | 248 | 9.0 | 12.0 | 0.00 | 0.02 | 0.02 | 92 | 1010.0 |
| 20260505213315 | 54 | 257 | 12.0 | 14.0 | 0.00 | 0.02 | 0.02 | 94 | 1009.0 |
| 20260505212115 | 53 | 267 | 11.0 | 12.0 | 0.00 | 0.02 | 0.02 | 95 | 1009.0 |
| 20260505210915 | 53 | 234 | 4.0 | 6.0 | 0.00 | 0.02 | 0.02 | 94 | 1009.0 |
| 20260505205715 | 54 | 246 | 4.0 | 6.0 | 0.00 | 0.02 | 0.02 | 94 | 1008.0 |
| 20260505204515 | 54 | 246 | 4.0 | 6.0 | 0.00 | 0.02 | 0.02 | 94 | 1008.0 |
| 20260505203315 | 55 | 299 | 6.0 | 7.0 | 0.00 | 0.02 | 0.02 | 92 | 1008.0 |
| 20260505202115 | 56 | 282 | 6.0 | 6.0 | 0.00 | 0.02 | 0.02 | 92 | 1008.0 |
| 20260505200915 | 56 | 267 | 2.0 | 3.0 | 0.00 | 0.02 | 0.02 | 91 | 1008.0 |
| 20260505195715 | 56 | 256 | 1.0 | 4.0 | 0.00 | 0.02 | 0.02 | 91 | 1008.0 |
| 20260505194514 | 57 | 270 | 1.0 | 3.0 | 0.00 | 0.02 | 0.02 | 90 | 1008.0 |
| 20260505193314 | 57 | 195 | 1.0 | 3.0 | 0.00 | 0.02 | 0.02 | 90 | 1008.0 |
| 20260505192114 | 57 | 85 | 2.0 | 3.0 | 0.00 | 0.02 | 0.02 | 89 | 1008.0 |
| 20260505190915 | 58 | 48 | 3.0 | 3.0 | 0.00 | 0.02 | 0.02 | 83 | 1007.0 |
| 20260505185714 | 58 | 61 | 3.0 | 4.0 | 0.00 | 0.02 | 0.02 | 78 | 1007.0 |
| 20260505184514 | 58 | 220 | 3.0 | 6.0 | 0.00 | 0.02 | 0.02 | 81 | 1007.0 |
| 20260505183314 | 58 | 212 | 3.0 | 7.0 | 0.00 | 0.02 | 0.02 | 80 | 1007.0 |
| 20260505182115 | 58 | 253 | 7.0 | 8.0 | 0.00 | 0.02 | 0.02 | 79 | 1007.0 |
| 20260505180915 | 58 | 214 | 6.0 | 6.0 | 0.00 | 0.02 | 0.02 | 78 | 1007.0 |
| 20260505175714 | 58 | 268 | 4.0 | 11.0 | 0.02 | 0.02 | 0.02 | 84 | 1007.0 |
| 20260505174514 | 58 | 268 | 4.0 | 11.0 | 0.02 | 0.02 | 0.02 | 84 | 1007.0 |
| 20260505173314 | 58 | 281 | 7.0 | 15.0 | 0.01 | 0.01 | 0.01 | 87 | 1008.0 |
| 20260505172114 | 59 | 260 | 14.0 | 27.0 | 0.00 | 0.00 | 0.00 | 74 | 1008.0 |
| 20260505170914 | 62 | 253 | 23.0 | 33.0 | 0.00 | 0.00 | 0.00 | 59 | 1008.0 |
| 20260505165715 | 67 | 241 | 21.0 | 34.0 | 0.00 | 0.00 | 0.00 | 44 | 1007.0 |
| 20260505164514 | 71 | 251 | 21.0 | 21.0 | 0.00 | 0.00 | 0.00 | 35 | 1006.0 |
| 20260505163314 | 72 | 100 | 4.0 | 13.0 | 0.00 | 0.00 | 0.00 | 28 | 1006.0 |
| 20260505162114 | 73 | 132 | 6.0 | 7.0 | 0.00 | 0.00 | 0.00 | 27 | 1006.0 |
| 20260505160914 | 74 | 76 | 4.0 | 5.0 | 0.00 | 0.00 | 0.00 | 27 | 1006.0 |
| 20260505153314 | 74 | 14 | 3.0 | 4.0 | 0.00 | 0.00 | 0.00 | 25 | 1006.0 |
| 20260505152114 | 74 | 61 | 4.0 | 6.0 | 0.00 | 0.00 | 0.00 | 25 | 1006.0 |
| 20260505150915 | 74 | 82 | 7.0 | 11.0 | 0.00 | 0.00 | 0.00 | 26 | 1006.0 |
| 20260505124515 | 76 | 96 | 4.0 | 15.0 | 0.00 | 0.00 | 0.00 | 20 | 1008.0 |
| 20260505123315 | 76 | 50 | 8.0 | 9.0 | 0.00 | 0.00 | 0.00 | 21 | 1008.0 |
| 20260505122115 | 76 | 59 | 4.0 | 10.0 | 0.00 | 0.00 | 0.00 | 20 | 1008.0 |
| 20260505120915 | 75 | 145 | 2.0 | 8.0 | 0.00 | 0.00 | 0.00 | 17 | 1008.0 |
| 20260505115715 | 75 | 190 | 5.0 | 9.0 | 0.00 | 0.00 | 0.00 | 16 | 1008.0 |
| 20260505114515 | 76 | 178 | 9.0 | 9.0 | 0.00 | 0.00 | 0.00 | 15 | 1008.0 |
| 20260505113315 | 77 | 254 | 5.0 | 6.0 | 0.00 | 0.00 | 0.00 | 16 | 1008.0 |
| 20260505112115 | 76 | 263 | 3.0 | 6.0 | 0.00 | 0.00 | 0.00 | 18 | 1008.0 |
| 20260505110915 | 75 | 297 | 4.0 | 7.0 | 0.00 | 0.00 | 0.00 | 20 | 1009.0 |
| 20260505102116 | 72 | 161 | 2.0 | 8.0 | 0.00 | 0.00 | 0.00 | 21 | 1009.0 |
| 20260505100916 | 72 | 143 | 3.0 | 10.0 | 0.00 | 0.00 | 0.00 | 22 | 1009.0 |
| 20260505095715 | 71 | 273 | 6.0 | 11.0 | 0.00 | 0.00 | 0.00 | 25 | 1009.0 |
| 20260505094516 | 71 | 218 | 7.0 | 10.0 | 0.00 | 0.00 | 0.00 | 25 | 1009.0 |
| 20260505093316 | 71 | 218 | 5.0 | 13.0 | 0.00 | 0.00 | 0.00 | 26 | 1009.0 |
| 20260505092117 | 71 | 224 | 7.0 | 10.0 | 0.00 | 0.00 | 0.00 | 25 | 1009.0 |